Location: Demmingen
(48.6757°N, 10.4375°E)
Time: 08:20:39
(UTC+00:00)

CZ-2C R/B - Pass Details

Date: 11 August 2024
Orbit: 703 x 903 km, 98.2° (Epoch: 16 September)

Event Time Altitude Azimuth Distance (km) Brightness Sun altitude
Rises 02:30:02 0° 5° (N) 3,173 7.0 -14.0°
Reaches altitude 10° 02:32:31 10° 354° (N) 2,272 6.0 -13.7°
Maximum altitude 02:36:46 29° 296° (WNW) 1,394 4.2 -13.2°
Enters shadow 02:39:51 16° 248° (WSW) 1,940 4.5 -12.8°
